sat.trackr.live / text

‹ back to catalog

STARLINK-11087 [DTC]

NORAD 59421 · 2024-065A

PAYLOAD ACTIVE UNKNOWN

§ Identity

Operator
Country
US
Launch date
2024-04-07
Launch site
AFWTR
Launch vehicle
Mass (kg)
RCS (m²)

Purposes: comms

External: N2YO · Heavens-Above · Gunter

§ Orbital elements

Epoch: 2026-05-25T02:35:46.324320Z

Period
91.74 min
Inclination
53.1577°
Eccentricity
0.0001087
Mean motion
15.69704984 rev/d
Perigee alt
359.0 km
Apogee alt
360.5 km
Semi-major
6,737.9 km
B*
4.5960e-5
RAAN
77.3032°
Arg perigee
69.0016°
Mean anomaly
291.1118°
Rev number
12,351

§ Raw data

STARLINK-11087 [DTC]1 59421U 24065A   26145.10817505  .00004982  00000+0  45960-4 0  99932 59421  53.1577  77.3032 0001087  69.0016 291.1118 15.69704984123519

JSON: /api/v1/satellites/59421 · /tle

For live sub-satellite position, see the globe view (requires WebGL).

§ Visibility from observer

Set your observer location to see the next 7 days of passes ≥ 10°. The values pass through the URL so the page stays shareable.

No JS? Fill the form by hand. The geolocation button needs JavaScript.